Погода в Оксовском

Россия / Архангельская область     62°36′25″N   39°54′56″E
темп.,
°C
ветер,
м/с
пор.,
м/с
влажн.,
%
обл.,
%
осадки,
мм/ч
давл.,
гПа
погр.,
м
16 июня, ср
ср1600:00+12юз288089 0.0 1006181
03:00+10юз2108745 0.0 1007283
06:00+14з386324 0.0 1007429
09:00+18з473737 0.0 10072484
12:00+18з4732100 0.0 10082677
15:00+19зсз573476 0.0 10092871
18:00+17з384179 0.0 10102005
21:00+12с1278100 0.2 101237
17 июня, чт
чт1700:00+9з299180 0.8 1013267
03:00+7зсз299395 0.8 1015240
06:00+10зсз39785 0.0 1017800
09:00+14сз58355 0.0 10182105
12:00+17сз57315 0.0 10192447
15:00+19ссз46295 0.0 10202454
18:00+18с35305 0.0 10211822
21:00+13юв11538 0.0 102211
18 июня, пт
пт1800:00+9ю2362100 0.0 102356
03:00+10ююз295577 0.0 1022196
06:00+14юз3125492 0.0 1021451
09:00+20зюз51145100 0.0 10191016
12:00+23зюз61041100 0.0 10181553
15:00+25зюз51036100 0.0 10171980
18:00+25зюз59355 0.0 10162020
21:00+21зюз4105221 0.0 1016526
19 июня, сб
сб1900:00+16юз3136846 0.0 1016353
03:00+16юз313673 0.0 1016420
06:00+19зюз412625 0.0 1016533
09:00+24зюз59493 0.0 10151014
12:00+28зюз610355 0.0 10151732
15:00+29з69345 0.0 10152094
18:00+28зюз583699 0.0 10151844
21:00+23зсз145635 0.0 1016141
20 июня, вс
вс2000:00+17юз117711 0.0 101720
03:00+16ююз25780 0.0 1017110
06:00+21юз311640 0.0 1017375
09:00+26зюз511460 0.0 10161979
12:00+29зюз693412 0.0 10152579
15:00+30зюз683083 0.0 10143018
18:00+29юз58365 0.0 10132583
21:00+25зюз3105115 0.0 1013475